• Em Portugal
  • Lista de países
  • Para 7 dias
  • Temperatura da água
  • Mapas de satélite
  • Mapa do tempo
  • Widgets de tempo
  • user-avatar
    Iniciar Sessão

    Previsão horária em Rîbniţa

    Hoje, 23 Outubro, Segunda-feira

    Tempo Temperatura Precipitação Vento Pressão Humidade
    00:00 +5°C° 0 mm 3 m/s 754 mmHg 74%
    01:00 +5°C° 0 mm 4 m/s 753 mmHg 74%
    02:00 +4°C° 0 mm 3 m/s 753 mmHg 76%
    03:00 +4°C° 0 mm 3 m/s 753 mmHg 76%
    04:00 +4°C° 0 mm 4 m/s 753 mmHg 76%
    05:00 +4°C° 0 mm 4 m/s 752 mmHg 76%
    06:00 +3°C° 0 mm 5 m/s 752 mmHg 75%
    07:00 +5°C° 0 mm 5 m/s 752 mmHg 75%
    08:00 +5°C° 0 mm 5 m/s 752 mmHg 74%
    09:00 +6°C° 0 mm 5 m/s 752 mmHg 71%
    10:00 +7°C° 0 mm 6 m/s 751 mmHg 68%
    11:00 +8°C° 0 mm 6 m/s 751 mmHg 64%
    12:00 +8°C° 0 mm 6 m/s 751 mmHg 62%
    13:00 +9°C° 0 mm 6 m/s 750 mmHg 59%
    14:00 +10°C° 0 mm 6 m/s 750 mmHg 57%
    15:00 +9°C° 0,1 mm 6 m/s 750 mmHg 60%
    16:00 +9°C° 0,1 mm 5 m/s 750 mmHg 63%
    17:00 +8°C° 0,1 mm 5 m/s 750 mmHg 65%
    18:00 +8°C° 0,1 mm 5 m/s 750 mmHg 68%
    19:00 +8°C° 0,1 mm 5 m/s 750 mmHg 71%
    20:00 +8°C° 0,1 mm 6 m/s 750 mmHg 73%
    21:00 +7°C° 0,3 mm 6 m/s 750 mmHg 74%
    22:00 +7°C° 0,3 mm 6 m/s 750 mmHg 75%
    23:00 +7°C° 0,3 mm 6 m/s 750 mmHg 76%

    Amanhã, 24 Outubro, Terça-feira

    Tempo Temperatura Precipitação Vento Pressão Humidade
    00:00 +7°C° 0,6 mm 6 m/s 751 mmHg 77%
    01:00 +7°C° 0,6 mm 6 m/s 751 mmHg 78%
    02:00 +5°C° 0,6 mm 6 m/s 751 mmHg 79%
    03:00 +5°C° 0,6 mm 6 m/s 751 mmHg 79%
    04:00 +5°C° 0,6 mm 6 m/s 751 mmHg 78%
    05:00 +5°C° 0,6 mm 6 m/s 751 mmHg 78%
    06:00 +5°C° 0,8 mm 6 m/s 752 mmHg 77%
    07:00 +5°C° 0,8 mm 6 m/s 753 mmHg 76%
    08:00 +4°C° 0,8 mm 6 m/s 753 mmHg 74%
    09:00 +5°C° 0,4 mm 6 m/s 754 mmHg 73%
    10:00 +5°C° 0,4 mm 6 m/s 754 mmHg 71%
    11:00 +5°C° 0,4 mm 6 m/s 755 mmHg 69%
    12:00 +7°C° 0,1 mm 6 m/s 755 mmHg 68%
    13:00 +7°C° 0,1 mm 6 m/s 755 mmHg 66%
    14:00 +7°C° 0,1 mm 6 m/s 755 mmHg 64%
    15:00 +7°C° 0 mm 6 m/s 756 mmHg 64%
    16:00 +7°C° 0 mm 5 m/s 756 mmHg 63%
    17:00 +7°C° 0 mm 5 m/s 756 mmHg 63%
    18:00 +7°C° 0 mm 5 m/s 757 mmHg 63%
    19:00 +6°C° 0 mm 5 m/s 757 mmHg 63%
    20:00 +6°C° 0 mm 5 m/s 758 mmHg 64%
    21:00 +6°C° 0 mm 5 m/s 758 mmHg 64%
    22:00 +5°C° 0 mm 5 m/s 758 mmHg 65%
    23:00 +5°C° 0 mm 5 m/s 758 mmHg 65%

    Depois de amanhã, 25 Outubro, Quarta-feira

    Tempo Temperatura Precipitação Vento Pressão Humidade
    00:00 +5°C° 0 mm 5 m/s 759 mmHg 66%
    01:00 +3°C° 0 mm 5 m/s 759 mmHg 67%
    02:00 +3°C° 0 mm 5 m/s 759 mmHg 68%
    03:00 +2°C° 0 mm 5 m/s 759 mmHg 69%
    04:00 +2°C° 0 mm 5 m/s 759 mmHg 69%
    05:00 +2°C° 0 mm 5 m/s 760 mmHg 70%
    06:00 +2°C° 0 mm 5 m/s 760 mmHg 69%
    07:00 +2°C° 0 mm 5 m/s 760 mmHg 69%
    08:00 +2°C° 0 mm 5 m/s 761 mmHg 68%
    09:00 +3°C° 0 mm 5 m/s 761 mmHg 63%
    10:00 +5°C° 0 mm 5 m/s 761 mmHg 59%
    11:00 +7°C° 0 mm 5 m/s 761 mmHg 54%
    12:00 +7°C° 0 mm 5 m/s 761 mmHg 52%
    13:00 +8°C° 0 mm 5 m/s 761 mmHg 49%
    14:00 +10°C° 0 mm 4 m/s 760 mmHg 46%
    15:00 +8°C° 0 mm 4 m/s 761 mmHg 49%
    16:00 +8°C° 0 mm 3 m/s 761 mmHg 51%
    17:00 +8°C° 0 mm 3 m/s 761 mmHg 54%
    18:00 +7°C° 0 mm 2 m/s 761 mmHg 56%
    19:00 +6°C° 0 mm 2 m/s 761 mmHg 58%
    20:00 +6°C° 0 mm 2 m/s 761 mmHg 60%
    21:00 +5°C° 0 mm 2 m/s 761 mmHg 62%
    22:00 +5°C° 0 mm 2 m/s 761 mmHg 63%
    23:00 +5°C° 0 mm 1 m/s 761 mmHg 65%

    26 Outubro, Quinta-feira

    Tempo Temperatura Precipitação Vento Pressão Humidade
    00:00 +5°C° 0 mm 1 m/s 761 mmHg 66%
    01:00 +5°C° 0 mm 1 m/s 761 mmHg 67%
    02:00 +5°C° 0 mm 1 m/s 761 mmHg 68%
    03:00 +5°C° 0 mm 1 m/s 761 mmHg 68%
    04:00 +5°C° 0 mm 1 m/s 760 mmHg 68%
    05:00 +4°C° 0 mm 2 m/s 760 mmHg 68%
    06:00 +4°C° 0 mm 2 m/s 760 mmHg 67%
    07:00 +5°C° 0 mm 2 m/s 760 mmHg 66%
    08:00 +4°C° 0 mm 3 m/s 760 mmHg 64%
    09:00 +5°C° 0 mm 3 m/s 759 mmHg 62%
    10:00 +6°C° 0 mm 4 m/s 759 mmHg 59%
    11:00 +7°C° 0 mm 4 m/s 759 mmHg 56%
    12:00 +8°C° 0 mm 4 m/s 758 mmHg 56%
    13:00 +10°C° 0 mm 4 m/s 758 mmHg 56%
    14:00 +11°C° 0 mm 4 m/s 757 mmHg 57%
    15:00 +10°C° 0 mm 3 m/s 757 mmHg 61%
    16:00 +10°C° 0 mm 3 m/s 757 mmHg 65%
    17:00 +10°C° 0 mm 2 m/s 757 mmHg 69%
    18:00 +9°C° 0 mm 2 m/s 757 mmHg 72%
    19:00 +9°C° 0 mm 2 m/s 757 mmHg 74%
    20:00 +9°C° 0 mm 2 m/s 756 mmHg 76%
    21:00 +9°C° 0 mm 2 m/s 756 mmHg 76%
    22:00 +10°C° 0 mm 2 m/s 756 mmHg 76%
    23:00 +10°C° 0 mm 2 m/s 755 mmHg 75%

    27 Outubro, Sexta-feira

    Tempo Temperatura Precipitação Vento Pressão Humidade
    00:00 +10°C° 0 mm 2 m/s 755 mmHg 75%
    01:00 +10°C° 0 mm 2 m/s 754 mmHg 74%
    02:00 +10°C° 0 mm 2 m/s 754 mmHg 74%
    03:00 +9°C° 0 mm 2 m/s 753 mmHg 74%
    04:00 +9°C° 0 mm 2 m/s 752 mmHg 74%
    05:00 +9°C° 0 mm 2 m/s 752 mmHg 75%
    06:00 +9°C° 0 mm 3 m/s 752 mmHg 74%
    07:00 +10°C° 0 mm 3 m/s 751 mmHg 74%
    08:00 +10°C° 0 mm 3 m/s 751 mmHg 73%
    09:00 +12°C° 0 mm 4 m/s 750 mmHg 68%
    10:00 +13°C° 0 mm 4 m/s 750 mmHg 63%
    11:00 +15°C° 0 mm 5 m/s 750 mmHg 59%
    12:00 +16°C° 0 mm 5 m/s 749 mmHg 56%
    13:00 +18°C° 0 mm 4 m/s 748 mmHg 54%
    14:00 +18°C° 0 mm 4 m/s 748 mmHg 51%
    15:00 +18°C° 0 mm 4 m/s 747 mmHg 55%
    16:00 +17°C° 0 mm 3 m/s 747 mmHg 58%
    17:00 +16°C° 0 mm 2 m/s 746 mmHg 61%
    18:00 +15°C° 0,1 mm 2 m/s 746 mmHg 65%
    19:00 +15°C° 0,1 mm 2 m/s 745 mmHg 69%
    20:00 +13°C° 0,1 mm 3 m/s 745 mmHg 72%
    21:00 +13°C° 0,1 mm 3 m/s 745 mmHg 76%
    22:00 +12°C° 0,1 mm 3 m/s 745 mmHg 79%
    23:00 +13°C° 0,1 mm 2 m/s 744 mmHg 83%

    28 Outubro, Sábado

    Tempo Temperatura Precipitação Vento Pressão Humidade
    00:00 +11°C° 0,3 mm 3 m/s 744 mmHg 83%
    01:00 +11°C° 0,3 mm 4 m/s 744 mmHg 84%
    02:00 +10°C° 0,3 mm 5 m/s 744 mmHg 85%
    03:00 +9°C° 0,5 mm 5 m/s 744 mmHg 84%
    04:00 +9°C° 0,5 mm 5 m/s 744 mmHg 83%
    05:00 +8°C° 0,5 mm 5 m/s 744 mmHg 83%
    06:00 +8°C° 0 mm 5 m/s 745 mmHg 82%
    07:00 +8°C° 0 mm 6 m/s 745 mmHg 82%
    08:00 +8°C° 0 mm 6 m/s 745 mmHg 82%
    09:00 +9°C° 0 mm 6 m/s 745 mmHg 76%
    10:00 +10°C° 0 mm 6 m/s 745 mmHg 70%
    11:00 +10°C° 0 mm 6 m/s 745 mmHg 64%
    12:00 +11°C° 0 mm 6 m/s 745 mmHg 61%
    13:00 +13°C° 0 mm 6 m/s 745 mmHg 57%
    14:00 +13°C° 0 mm 5 m/s 744 mmHg 54%
    15:00 +12°C° 0,1 mm 5 m/s 744 mmHg 57%
    16:00 +12°C° 0,1 mm 4 m/s 744 mmHg 61%
    17:00 +11°C° 0,1 mm 3 m/s 744 mmHg 65%
    18:00 +11°C° 0,1 mm 3 m/s 744 mmHg 67%
    19:00 +10°C° 0,1 mm 2 m/s 743 mmHg 70%
    20:00 +10°C° 0,1 mm 2 m/s 743 mmHg 73%
    21:00 +10°C° 0,2 mm 2 m/s 743 mmHg 74%
    22:00 +9°C° 0,2 mm 2 m/s 742 mmHg 76%
    23:00 +9°C° 0,2 mm 2 m/s 742 mmHg 77%

    29 Outubro, Domingo

    Tempo Temperatura Precipitação Vento Pressão Humidade
    00:00 +9°C° 0,3 mm 2 m/s 741 mmHg 78%
    01:00 +9°C° 0,3 mm 3 m/s 741 mmHg 79%
    02:00 +8°C° 0,3 mm 3 m/s 740 mmHg 80%
    03:00 +8°C° 0,1 mm 3 m/s 739 mmHg 79%
    04:00 +7°C° 0,1 mm 4 m/s 739 mmHg 78%
    05:00 +7°C° 0,1 mm 4 m/s 738 mmHg 77%
    06:00 +7°C° 0 mm 4 m/s 738 mmHg 76%
    07:00 +7°C° 0 mm 5 m/s 738 mmHg 75%
    08:00 +7°C° 0 mm 5 m/s 738 mmHg 74%
    09:00 +8°C° 0 mm 5 m/s 738 mmHg 71%
    10:00 +9°C° 0 mm 5 m/s 738 mmHg 68%
    11:00 +9°C° 0 mm 5 m/s 738 mmHg 65%
    12:00 +9°C° 0 mm 6 m/s 737 mmHg 64%
    13:00 +9°C° 0 mm 6 m/s 737 mmHg 62%
    14:00 +9°C° 0 mm 7 m/s 737 mmHg 60%
    15:00 +9°C° 0 mm 7 m/s 737 mmHg 62%
    16:00 +8°C° 0 mm 7 m/s 737 mmHg 63%
    17:00 +8°C° 0 mm 7 m/s 738 mmHg 65%
    18:00 +8°C° 0,1 mm 7 m/s 738 mmHg 68%
    19:00 +6°C° 0,1 mm 7 m/s 738 mmHg 71%
    20:00 +6°C° 0,1 mm 7 m/s 738 mmHg 75%
    21:00 +6°C° 0,3 mm 7 m/s 739 mmHg 76%
    22:00 +6°C° 0,3 mm 8 m/s 739 mmHg 77%
    23:00 +6°C° 0,3 mm 8 m/s 739 mmHg 78%
    Mostrar mais